Lapse_Rate
8.2 7.5 6.9 6.4 6.6 5.9 6.0 5.3 6.5 5.5 5.3 6.4 6.1 6.5 6.5 6.5 6.4 6.3 6.5 6.5 6.5 6.5 6.5 6.5 6.5 6.5 6.5 5.9 6.5 6.5 6.5 6.5 6.5 6.5 6.5 6.5 6.5 6.5 6.5 6.5 6.5 6.5 6.5 6.5
8.4 7.3 6.5 6.9 6.1 6.2 5.1 5.3 6.6 5.3 5.8 6.5 6.5 6.5 6.5 6.5 6.5 6.5 6.5 6.5 6.5 6.5 6.5 6.5 6.5 6.5 6.2 5.9 6.5 6.5 6.5 6.5 6.5 6.5 6.5 6.5 6.5 6.5 6.5 6.5 6.5 6.5 6.5 6.5
8.5 7.6 7.1 7.2 5.9 5.8 4.5 4.1 6.5 6.0 5.6 4.4 6.5 6.5 6.5 6.5 6.4 6.5 6.3 6.5 6.5 6.5 6.5 6.5 6.5 6.5 6.5 6.4 6.2 6.9 6.6 6.5 6.5 6.5 6.5 6.5 6.5 6.5 6.5 6.5 6.5 6.5 6.5 6.5
8.1 7.2 6.5 5.9 6.9 6.5 4.3 3.4 6.3 6.1 6.5 6.4 6.5 6.5 6.5 6.5 6.5 6.5 6.4 6.5 6.5 6.5 6.5 6.5 6.5 6.5 6.5 6.5 6.5 6.5 6.5 6.5 6.5 6.5 6.5 6.5 6.5 6.5 6.5 6.5 6.5 6.5 6.5 6.5
8.0 7.1 6.0 4.8 6.6 6.8 4.0 3.9 5.1 4.2 5.9 5.7 6.5 6.5 6.5 6.5 6.5 6.5 6.5 6.5 6.5 6.5 6.5 6.5 6.5 6.5 6.5 6.5 6.5 6.5 6.5 6.5 6.5 6.5 6.5 6.5 6.5 6.5 6.5 6.5 6.5 6.5 6.5 6.5
7.4 6.9 6.8 5.7 6.2 6.1 3.4 1.5 2.8 2.7 6.1 6.5 6.5 6.5 6.5 6.5 6.4 6.4 6.4 6.3 6.5 6.5 6.5 6.0 5.9 5.6 5.7 6.4 6.5 6.5 6.5 6.5 6.5 6.5 6.5 6.5 6.5 6.5 6.5 6.5 6.5 6.5 6.5 6.5
6.8 4.5 5.8 5.9 6.9 5.3 2.4 1.3 1.2 3.4 6.5 6.5 6.5 6.5 6.5 6.5 6.5 6.5 6.4 5.7 6.5 6.2 4.6 4.9 5.6 6.0 6.6 6.4 6.5 6.2 6.5 6.5 6.5 6.5 6.5 6.5 6.5 6.5 6.5 6.5 6.5 6.5 6.5 6.5
6.0 6.2 5.9 6.5 7.0 4.9 1.2 -0.4 0.7 1.9 6.5 6.1 6.4 6.4 6.5 5.5 5.3 6.3 6.3 6.1 5.1 4.3 5.1 6.5 6.5 6.5 6.5 6.5 6.5 6.5 6.5 6.5 6.5 6.5 6.5 6.5 6.5 6.5 6.5 6.5 6.5 6.5 6.5 6.5
6.2 5.4 6.6 6.4 6.8 4.6 0.5 -0.6 -1.2 0.6 5.7 6.3 5.4 6.3 5.8 6.5 6.5 6.5 6.3 5.7 4.5 5.6 6.5 6.5 6.5 6.5 6.5 6.5 6.5 6.5 6.5 6.5 6.5 6.5 6.5 6.5 6.5 6.5 6.3 6.4 6.5 6.5 6.4 6.5
6.2 6.0 6.8 6.2 6.5 4.9 2.0 0.5 -1.1 0.4 4.0 4.8 4.9 5.9 5.8 3.8 5.7 6.5 6.0 5.9 5.6 5.4 6.5 6.5 6.5 6.5 6.5 6.5 6.5 6.5 6.5 6.5 6.5 6.5 6.5 6.5 6.5 6.1 5.9 6.5 6.5 6.1 6.4 6.1
5.9 6.5 6.5 6.3 6.6 4.6 2.4 -0.0 -0.7 0.2 3.6 4.0 3.5 4.3 3.7 4.2 3.9 6.5 5.3 5.8 5.2 6.3 6.5 6.5 6.5 6.5 6.5 6.5 6.5 6.5 6.5 6.5 6.5 6.5 6.5 6.5 5.7 6.0 6.5 6.2 5.3 6.1 5.8 5.8
5.0 6.3 6.0 6.3 6.1 5.0 2.9 1.3 0.6 -0.1 1.3 4.7 3.9 3.1 2.8 2.8 4.2 2.5 4.2 5.5 5.3 4.7 6.5 6.5 6.5 6.5 6.5 6.5 6.5 6.5 6.5 6.5 6.5 6.5 6.5 6.1 5.8 6.1 5.3 4.6 5.1 5.5 5.6 5.4
5.6 6.8 6.0 6.1 6.5 5.3 2.6 0.7 -0.2 -0.6 4.2 4.4 3.3 4.2 4.0 3.1 1.7 2.0 3.7 3.3 4.3 4.3 3.2 5.2 6.4 6.5 6.5 6.5 6.5 6.5 6.5 6.0 6.5 6.5 6.5 6.3 5.4 5.3 4.5 4.2 4.8 4.7 4.6 5.2
6.3 6.5 6.5 6.3 6.0 4.9 3.6 1.5 -0.3 0.5 2.6 5.4 5.6 5.1 4.1 3.1 2.4 2.7 2.4 1.9 2.1 2.3 2.3 4.9 6.5 6.5 5.8 6.5 6.5 6.5 6.1 6.4 6.5 6.5 6.4 6.2 5.9 5.0 4.1 4.3 3.9 3.8 4.2 4.5
6.8 6.7 6.2 6.0 5.4 4.3 2.3 0.1 -0.5 -0.1 2.3 6.1 5.3 4.4 4.6 3.5 3.6 2.6 2.6 2.7 2.2 2.2 4.6 6.1 6.5 5.6 6.1 6.1 6.4 6.5 5.2 6.5 6.5 6.5 5.2 5.4 5.6 4.8 4.4 4.4 3.9 3.5 3.5 4.5
6.0 6.3 6.1 4.6 3.9 3.9 3.6 3.6 1.2 0.1 -0.1 2.2 6.5 4.5 5.9 4.9 4.4 3.5 3.3 2.9 1.6 2.2 4.1 5.5 4.5 4.4 5.2 6.5 6.5 5.6 3.9 3.5 4.1 5.2 4.8 4.6 5.4 4.0 3.3 4.1 4.2 4.0 3.8 4.0
6.7 5.8 5.0 5.0 4.0 1.6 2.2 2.7 2.0 1.0 -0.2 1.5 6.3 6.3 5.6 5.7 5.2 4.2 4.0 3.0 2.6 3.1 4.4 5.4 5.0 4.8 4.5 6.5 6.5 5.4 3.7 3.4 3.2 2.7 3.9 5.3 4.2 4.3 2.8 3.3 3.9 4.4 4.2 3.5
6.9 6.5 5.9 5.6 4.6 3.0 1.7 1.0 2.7 1.1 -0.1 1.5 6.5 6.5 6.6 6.4 5.5 5.5 4.6 4.4 3.8 4.1 4.7 4.8 5.7 5.0 5.3 6.5 5.7 4.9 3.6 2.7 3.1 3.1 2.6 2.8 3.1 3.5 3.8 3.9 4.3 5.2 4.7 4.3
7.2 7.1 6.4 4.9 2.2 2.0 2.5 3.2 1.9 -0.0 1.7 4.5 6.0 6.5 6.5 5.7 5.4 4.9 4.9 4.4 6.4 4.8 6.4 6.2 5.8 6.5 6.5 6.4 4.6 3.5 2.7 3.1 2.9 2.8 4.0 3.9 4.3 4.7 5.0 4.4 4.3 5.0 5.7 5.3
6.7 6.4 6.1 2.9 1.6 3.1 3.0 2.0 2.3 0.6 1.2 2.5 6.3 4.9 6.5 5.2 5.1 5.2 5.4 5.4 6.5 6.5 6.4 5.2 6.5 6.5 4.6 3.3 2.6 1.7 2.0 2.3 2.1 3.5 4.8 4.8 5.5 6.9 7.1 7.2 6.8 5.8 5.1 4.7
5.4 4.8 2.6 2.5 3.1 2.2 1.9 2.3 3.9 3.7 6.4 4.7 4.7 5.1 6.2 5.2 6.3 6.5 5.2 6.5 6.5 6.5 6.5 6.5 6.5 6.5 6.1 2.3 2.1 1.1 1.6 1.9 2.6 3.7 4.3 5.6 7.1 7.2 7.1 6.8 6.7 5.7 5.2 4.5
4.6 2.3 3.6 3.1 3.4 3.5 6.1 6.5 6.2 6.6 6.5 5.6 5.8 5.0 3.3 3.7 3.5 5.0 5.2 6.5 6.5 6.5 5.7 6.5 6.5 6.5 3.6 2.2 1.5 0.8 1.1 1.7 2.2 3.2 4.1 5.4 6.5 6.5 6.4 6.6 6.3 5.5 5.0 4.2
3.4 3.6 3.6 4.8 4.9 6.5 6.5 6.5 6.5 6.5 5.6 5.7 5.7 6.3 4.2 4.1 3.9 4.2 6.5 6.5 6.5 6.4 6.5 6.5 6.5 3.7 2.9 1.8 1.2 1.2 1.3 2.0 2.4 3.1 4.4 5.6 6.5 6.1 6.2 5.8 5.6 5.0 4.7 4.4
4.3 5.3 6.5 6.5 6.5 6.5 6.5 6.5 6.5 3.8 3.7 5.6 4.5 6.6 5.4 4.9 5.7 6.4 6.5 6.5 6.4 6.5 6.5 6.5 6.5 1.4 1.0 1.2 1.4 1.3 1.1 1.9 2.4 3.1 4.0 6.2 6.7 6.4 5.8 5.3 4.5 3.8 4.1 3.8
5.6 5.9 6.5 6.5 5.5 6.6 5.2 3.4 4.5 3.7 5.9 3.4 4.2 4.8 4.7 6.4 6.5 6.5 6.5 6.5 6.5 6.5 6.5 6.5 -0.0 -1.4 0.0 0.7 1.6 0.9 0.8 1.1 1.3 1.4 2.5 5.6 6.7 6.2 5.7 5.6 4.8 3.1 2.6 3.0
5.2 5.6 6.4 6.5 6.0 6.5 5.6 3.6 5.5 4.2 4.3 1.4 2.4 6.5 6.5 6.5 6.5 6.5 6.5 6.5 6.5 6.5 6.4 -0.5 -3.8 -3.0 -1.0 0.2 0.9 0.3 -0.2 -0.4 -0.4 -0.3 1.6 4.3 6.5 6.1 5.7 5.3 5.0 4.8 4.0 2.1
6.0 6.4 5.8 4.6 4.6 5.7 5.9 5.3 5.2 4.6 3.7 6.5 5.9 6.5 6.5 6.4 6.5 6.5 6.5 6.5 6.5 1.3 -1.3 -1.9 -1.4 -1.3 -1.0 -0.4 0.5 0.4 0.1 -0.2 -0.5 -0.1 1.2 1.9 4.6 6.5 5.5 5.2 4.6 3.9 3.8 3.2
Wind_Speed
18 15 16 25 22 33 13 4 3 3 2 2 0 3 5 3 3 2 2 3 3 3 2 3 2 1 3 5 3 3 2 3 2 2 1 2 1 2 2 3 2 3 3 4
17 15 22 28 25 36 5 4 3 1 1 3 2 2 2 2 3 2 3 2 1 2 2 1 2 3 4 6 4 3 4 3 3 7 4 2 5 4 3 3 2 3 4 2
18 14 23 17 37 39 4 4 5 2 2 0 4 5 4 3 2 2 4 3 2 2 1 4 2 2 1 4 5 6 4 3 3 3 3 2 3 4 4 3 3 3 2 2
15 24 34 37 31 34 3 1 3 4 5 4 4 3 5 5 4 1 2 2 3 5 3 2 2 1 2 4 7 4 3 4 4 2 4 2 3 3 4 4 2 3 4 3
15 24 14 41 46 23 2 5 4 2 2 5 7 4 5 5 3 4 2 3 4 3 4 5 5 3 3 1 5 4 4 2 3 4 6 3 4 6 2 4 3 5 3 4
23 22 24 38 41 11 3 1 2 4 1 3 5 5 7 7 7 3 2 6 4 3 3 4 3 3 2 0 2 4 2 1 2 2 4 0 5 5 3 2 3 4 3 1
23 26 30 38 39 8 2 2 3 4 3 3 4 6 3 8 3 6 3 4 3 2 4 4 2 2 2 3 2 1 2 2 1 1 2 3 4 2 3 3 4 4 4 4
18 28 36 36 32 5 3 2 3 3 3 3 3 7 6 7 5 4 4 2 1 4 3 3 2 2 2 1 2 2 1 1 1 2 2 0 3 4 2 4 3 2 2 2
13 9 21 29 28 7 3 2 1 4 6 3 6 5 5 5 3 3 2 3 2 1 2 1 2 2 3 2 2 3 3 3 2 1 3 2 2 1 0 3 1 1 1 1
13 19 29 26 25 10 4 1 2 4 4 2 2 4 6 5 4 3 3 3 1 2 2 2 2 2 1 2 4 3 1 2 2 2 2 2 3 5 2 3 4 3 2 2
16 18 29 27 24 14 4 1 3 3 3 3 4 3 4 3 3 4 4 4 2 2 2 2 2 2 2 2 2 3 3 4 2 2 2 2 4 3 1 2 3 2 3 2
17 31 30 27 23 16 6 3 2 5 6 3 1 4 3 2 1 5 2 2 3 4 4 1 2 1 1 2 2 2 0 4 4 4 4 1 3 3 3 2 2 3 2 3
16 31 29 28 25 13 7 3 2 4 3 3 4 4 5 5 3 1 4 2 3 2 1 3 2 2 3 3 3 1 1 1 2 3 2 3 1 1 3 3 3 3 3 3
32 31 28 26 20 15 9 3 1 4 4 4 2 2 4 8 6 3 2 5 4 4 2 2 2 2 2 2 1 2 3 2 4 0 1 2 2 2 3 4 5 6 5 4
30 28 27 25 19 18 11 3 2 1 4 4 2 1 5 5 5 8 7 6 4 2 3 3 1 1 2 1 1 3 4 5 4 4 5 4 2 4 2 3 4 5 5 5
31 28 25 23 23 17 3 3 2 1 3 4 3 2 4 5 6 9 7 4 4 3 3 1 0 1 2 2 3 4 3 2 2 3 2 2 3 6 2 1 2 3 4 4
33 29 24 18 11 4 3 3 2 4 3 3 4 2 3 2 3 3 3 4 2 3 1 1 1 0 2 2 3 3 6 6 3 3 3 2 3 1 5 4 4 3 2 3
34 30 19 21 24 13 3 3 3 4 4 4 4 2 2 1 2 2 1 2 2 3 2 1 1 1 1 4 7 2 5 6 4 3 4 4 2 2 4 4 3 2 2 2
33 26 14 3 4 2 2 3 5 4 3 4 3 5 4 2 2 2 2 2 2 1 1 1 2 2 5 7 7 8 7 7 6 5 4 3 2 0 3 5 7 5 3 2
30 8 2 1 2 3 2 4 3 4 3 3 3 2 3 3 2 1 2 2 1 1 2 2 2 4 5 6 7 7 10 7 9 6 3 3 1 1 2 2 4 3 3 3
2 3 2 1 2 2 3 2 2 1 2 2 3 3 5 2 3 3 1 2 0 2 3 3 2 4 4 6 7 6 8 8 6 5 5 5 3 1 2 1 2 2 2 1
6 6 5 2 2 2 4 0 2 1 5 3 4 4 3 2 2 3 1 3 3 2 2 1 3 4 3 6 6 7 8 8 7 5 6 5 4 3 2 1 1 0 1 0
3 3 3 2 1 3 7 7 3 2 4 5 4 3 3 2 2 3 3 4 3 1 2 4 5 3 2 6 6 6 6 7 7 6 5 6 4 4 2 1 0 0 2 3
3 4 6 4 3 4 4 3 3 3 4 9 5 3 3 2 3 3 4 2 3 3 3 6 3 5 6 6 5 8 8 7 7 7 6 5 4 4 4 3 1 1 3 4
2 3 5 5 2 1 1 2 3 1 8 5 4 3 3 2 3 1 3 3 4 5 5 3 3 4 7 7 7 6 7 6 6 5 5 4 4 4 3 4 4 4 4 4
1 2 3 2 2 2 1 2 2 2 7 2 3 4 4 1 4 3 6 7 7 4 3 3 1 4 5 6 7 6 6 6 5 4 4 4 4 5 4 3 4 5 5 5
2 1 1 1 1 2 2 3 3 4 3 2 3 4 5 3 3 2 4 5 3 3 3 2 3 6 7 6 6 6 6 5 5 4 4 4 4 3 3 5 5 5 5 5
Wind_Direction
278 278 302 297 260 153 130 122 124 147 139 113 301 169 191 167 147 107 106 102 119 143 192 158 111 298 256 339 287 360 332 128 81 256 313 189 156 0 54 89 359 36 100 335
280 278 313 285 231 156 132 105 112 80 212 170 235 224 109 112 130 143 136 110 135 220 156 88 86 230 270 328 19 15 347 29 10 347 360 22 48 352 34 72 67 45 101 246
278 284 283 259 166 162 112 136 127 124 211 124 162 149 161 122 52 103 96 120 92 141 61 34 145 318 340 344 12 16 25 24 112 160 210 235 14 349 49 82 68 149 119 99
282 284 280 257 201 167 110 143 164 173 177 223 178 132 148 142 143 99 112 114 185 163 135 126 131 169 286 24 349 19 57 41 11 323 312 97 27 19 22 55 183 101 173 106
283 299 222 153 164 164 123 138 135 78 101 110 117 147 185 147 132 144 184 156 173 146 142 181 183 146 7 193 329 26 7 1 35 6 13 31 76 71 67 62 59 49 75 52
289 279 259 154 166 163 157 207 63 103 24 114 114 192 171 172 137 20 150 145 108 106 156 113 114 103 127 82 39 349 36 66 58 316 354 254 23 17 1 338 29 128 63 31
298 280 167 169 173 180 148 163 119 97 147 144 172 149 119 142 130 133 106 101 104 183 98 105 94 122 190 188 262 125 34 27 56 245 30 61 237 315 184 115 54 20 50 27
325 136 149 169 174 114 95 90 106 118 110 118 88 119 107 95 66 76 98 61 76 147 119 97 100 15 9 47 127 186 177 113 68 104 53 335 24 10 32 66 352 10 85 37
312 295 166 168 177 125 79 72 69 102 120 226 137 109 133 125 114 49 73 57 136 84 117 107 136 175 155 170 84 70 83 76 104 63 98 94 232 303 206 153 316 349 108 81
279 290 183 169 180 141 88 93 65 91 104 3 80 130 166 128 105 111 134 162 107 31 131 108 139 198 203 153 155 192 71 50 106 26 88 317 263 296 268 136 220 347 15 13
258 180 159 162 163 138 93 14 4 116 94 32 16 47 121 90 115 144 182 97 324 62 117 126 185 139 221 87 182 196 169 131 162 91 82 297 10 330 174 230 315 351 9 16
278 161 155 152 153 135 120 90 328 58 77 110 55 103 74 25 120 125 48 155 158 181 98 108 110 132 60 139 210 29 146 179 175 164 197 228 335 46 345 308 267 356 359 9
199 150 150 154 168 140 103 119 182 64 94 53 44 360 332 27 4 261 119 280 173 97 150 150 138 123 120 159 239 196 265 112 130 125 195 141 69 311 14 357 12 352 3 356
142 144 147 151 156 130 112 127 124 85 107 103 342 337 20 325 4 59 76 129 72 100 68 85 110 121 153 199 187 193 209 117 152 354 103 126 249 99 13 11 28 18 4 8
131 135 135 143 138 115 94 83 36 105 119 123 127 326 350 2 30 58 61 82 87 61 60 60 136 128 100 339 71 242 187 184 161 214 196 150 151 129 47 42 17 358 356 336
121 123 129 132 135 127 111 61 16 39 102 105 112 293 15 9 37 52 51 56 69 76 104 132 273 258 111 125 230 249 193 178 165 163 146 119 114 148 28 337 324 345 25 358
126 126 117 120 109 74 82 169 164 134 89 93 104 73 317 318 30 21 31 32 67 88 106 85 130 23 73 166 229 239 180 143 118 74 121 107 43 184 337 342 337 338 42 58
126 111 109 105 100 114 52 356 92 98 90 74 105 88 158 224 99 61 26 53 32 23 123 59 125 23 56 252 231 197 152 130 133 127 75 114 122 38 6 339 332 26 357 326
126 121 114 69 43 73 203 159 63 57 111 115 98 137 179 174 92 111 30 84 68 314 102 249 128 188 229 226 193 179 176 177 176 161 144 148 139 141 10 360 350 325 315 191
121 104 95 83 322 112 46 7 30 22 356 52 91 125 126 147 133 101 97 14 134 89 260 123 208 254 245 217 210 180 168 156 139 133 196 161 193 241 38 324 320 337 4 64
87 123 85 278 292 57 35 70 98 315 56 67 132 136 133 238 118 154 172 174 191 69 260 146 263 266 240 194 175 172 152 156 166 140 126 135 159 189 200 292 11 7 1 34
157 119 103 118 77 51 100 295 351 161 188 147 128 166 149 161 136 100 237 121 49 220 160 124 262 252 225 153 151 149 145 148 149 148 155 155 156 153 171 223 260 89 70 108
114 73 83 142 171 43 173 185 245 188 171 166 152 126 125 102 64 80 101 84 194 188 216 240 233 247 179 163 141 142 147 143 144 154 159 158 148 149 156 204 145 241 219 205
99 150 145 190 186 243 195 181 145 174 124 139 120 109 126 130 78 140 102 213 135 198 238 237 250 218 176 163 153 143 167 164 163 171 176 175 172 177 177 169 181 294 251 238
142 157 180 194 159 102 95 103 92 80 140 125 106 76 99 86 105 130 118 153 221 214 231 233 239 213 157 160 166 164 163 168 169 166 158 177 203 201 200 195 193 201 237 240
76 70 101 101 90 125 112 93 116 201 146 98 65 106 79 131 137 125 204 152 221 242 218 227 198 169 163 161 170 172 163 166 166 162 170 191 198 202 211 188 208 210 208 231
69 63 35 106 74 125 143 142 168 144 102 132 120 104 177 98 77 229 192 209 224 222 247 220 210 178 174 160 159 165 165 166 172 176 189 200 220 199 188 221 228 217 224 226